Puebla, Mexico

8:45 AM CDT on September 22, 2017 (GMT -0500)
Hermanos Serdan International

Weather History for MMPB - November, 2012

Change the Weather History Date:

Wednesday, November 14, 2012

  Actual Average Record
Temperature  
Mean Temperature 60 °F -  
Max Temperature 74 °F 69 °F 77 °F (2007)
Min Temperature 47 °F 45 °F 37 °F (2010)
Degree Days  
Heating Degree Days 4    
Growing Degree Days 10 (Base 50)    
Moisture  
Dew Point 44 °F    
Average Humidity 60    
Maximum Humidity 93    
Minimum Humidity 20    
Precipitation  
Precipitation 0.00 in - - ()
Sea Level Pressure  
Sea Level Pressure 30.28 in    
Wind  
Wind Speed 6 mph ()    
Max Wind Speed 18 mph    
Max Gust Speed -    
Visibility 9.3 miles    
Events      
Averages and records for this station are not official NWS values.
T = Trace of Precipitation, MM = Missing Value Source: Averaged Metar Reports

Daily Weather History Graph

Daily Weather History Graph

Search for Another Location

Airport or City:

Trip Planner

Search our weather history database for the weather conditions in past years. The results will help you decide how hot, cold, wet, or windy it might be!

Date:

Astronomy

Nov. 14, 2012 Rise Set
Actual Time 6:39 AM CST 5:54 PM CST
Civil Twilight 6:16 AM CST 6:17 PM CST
Nautical Twilight 5:50 AM CST 6:44 PM CST
Astronomical Twilight 5:24 AM CST 7:10 PM CST
Moon 7:23 AM CST (11/14) 6:52 PM CST (11/14)
Length of Visible Light 12h 00m
Length of Day
11h 14m
New Moon, 1% of the Moon is Illuminated
Nov 14
New Moon
Nov 20
First Quarter
Nov 28
Full
Dec 6
Last Quarter
Dec 13
New

Hourly Weather History & Observations

Time (CST) Temp. Windchill Dew Point Humidity Pressure Visibility Wind Dir Wind Speed Gust Speed Precip Events Conditions
12:40 AM 48.2 °F - 44.6 °F 87% 30.40 in 10.0 mi North 6.9 mph - N/A   Clear
2:50 AM 51 °F - 47 °F 80% 29.96 in 3 mi Calm Calm - -   Scattered Clouds
3:44 AM 44.6 °F 40.2 °F 42.8 °F 93% 30.37 in 10.0 mi NW 8.1 mph - N/A   Clear
5:50 AM 48 °F - 46 °F 90% 30.02 in 3 mi Calm Calm - -  
6:37 AM 42.8 °F 37.5 °F 41.0 °F 93% 30.41 in 10.0 mi NW 9.2 mph - N/A   Clear
7:10 AM 46.4 °F 43.5 °F 42.8 °F 87% 30.42 in 10.0 mi NW 5.8 mph - N/A   Clear
7:47 AM 50.0 °F - 46.4 °F 87% 30.43 in 10.0 mi NW 6.9 mph - N/A   Clear
8:41 AM 57.2 °F - 46.4 °F 67% 30.44 in 10.0 mi North 9.2 mph - N/A   Scattered Clouds
8:50 AM 55 °F - 47 °F 66% 30.12 in 12 mi North 2.2 mph - -  
9:43 AM 60.8 °F - 46.4 °F 59% 30.45 in 10.0 mi North 16.1 mph - N/A   Scattered Clouds
10:46 AM 66.2 °F - 46.4 °F 49% 30.44 in 10.0 mi North 11.5 mph - N/A   Mostly Cloudy
11:47 AM 66.2 °F - 44.6 °F 46% 30.41 in 10.0 mi NNE 11.5 mph - N/A   Mostly Cloudy
11:50 AM 68 °F - 44 °F 31% 30.06 in 12 mi North 2.2 mph - -   Partly Cloudy
12:44 PM 69.8 °F - 44.6 °F 40% 30.39 in 10.0 mi North 11.5 mph - N/A   Mostly Cloudy
1:42 PM 69.8 °F - 44.6 °F 40% 30.36 in 10.0 mi North 12.7 mph - N/A   Mostly Cloudy
2:40 PM 72 °F - 40 °F 20% 29.92 in 12 mi WNW 2.2 mph - -   Mostly Cloudy
2:49 PM 71.6 °F - 42.8 °F 35% 30.35 in 10.0 mi NNE 8.1 mph - N/A   Mostly Cloudy
3:40 PM 71.6 °F - 44.6 °F 38% 30.35 in 10.0 mi NNE 11.5 mph - N/A   Mostly Cloudy
4:55 PM 66.2 °F - 42.8 °F 43% 30.35 in 10.0 mi NNE 18.4 mph - N/A   Scattered Clouds
5:40 PM 67 °F - 39 °F 24% 29.86 in 12 mi NW 2.2 mph - -   Partly Cloudy
5:47 PM 60.8 °F - 44.6 °F 55% 30.37 in 10.0 mi NNE 10.4 mph - N/A   Scattered Clouds
6:41 PM 57.2 °F - 44.6 °F 63% 30.39 in 10.0 mi North 11.5 mph - N/A   Clear
7:40 PM 55.4 °F - 46.4 °F 72% 30.42 in 10.0 mi NNW 10.4 mph - N/A   Clear
8:41 PM 53.6 °F - 46.4 °F 77% 30.44 in 10.0 mi North 8.1 mph - N/A   Clear
8:59 PM 59 °F - 38 °F 33% 29.87 in 3 mi Calm Calm - -   Scattered Clouds
9:40 PM 53.6 °F - 46.4 °F 77% 30.45 in 10.0 mi NNW 9.2 mph - N/A   Clear
10:42 PM 51.8 °F - 46.4 °F 82% 30.46 in 10.0 mi North 9.2 mph - N/A   Clear
11:56 PM 55 °F - 43 °F 54% 29.96 in 3 mi Calm Calm - -   Scattered Clouds